Weather History for KVES - October, 2012

Change the Weather History Date:

Saturday, October 27, 2012

  Actual Average (KDAY) Record (KDAY)
Temperature  
Mean Temperature 45 °F 50 °F  
Max Temperature 53 °F 60 °F 81 °F (1897)
Min Temperature 37 °F 41 °F 21 °F (1903)
Degree Days  
Heating Degree Days 20 15  
Month to date heating degree days 295  
Since 1 July heating degree days 385  
Cooling Degree Days 0 0  
Month to date cooling degree days 10  
Year to date cooling degree days 891  
Moisture  
Dew Point 36 °F    
Average Humidity 74    
Maximum Humidity 100    
Minimum Humidity 50    
Precipitation  
Precipitation 0.00 in 0.09 in 1.54 in (1919)
Month to date precipitation 2.53  
Year to date precipitation 34.14  
Snow  
Snow 0.00 in 0.00 in 0.50 in (1957)
Month to date snowfall 0.2  
Since 1 July snowfall 0.2  
Since 1 September snowfall 0.2  
Snow Depth -    
Sea Level Pressure  
Sea Level Pressure 30.13 in    
Wind  
Wind Speed 11 mph (North)    
Max Wind Speed 16 mph    
Max Gust Speed 23 mph    
Visibility 10 miles    
Events      
T = Trace of Precipitation, MM = Missing Value Source: NWS Daily Summary

Daily Weather History Graph

Daily Weather History Graph

Search for Another Location

Airport or City:

Trip Planner

Search our weather history database for the weather conditions in past years. The results will help you decide how hot, cold, wet, or windy it might be!

Date:

Astronomy

Oct. 27, 2012 Rise Set
Actual Time 8:02 AM EDT 6:40 PM EDT
Civil Twilight 7:34 AM EDT 7:08 PM EDT
Nautical Twilight 7:02 AM EDT 7:40 PM EDT
Astronomical Twilight 6:31 AM EDT 8:12 PM EDT
Moon 5:26 PM EDT (10/27) 5:56 AM EDT (10/27)
Length of Visible Light 11h 34m
Length of Day
10h 38m
Waxing Gibbous, 96% of the Moon is Illuminated
Oct 27
Waxing Gibbous
Oct 29
Full
Nov 6
Last Quarter
Nov 13
New
Nov 20
First Quarter

Hourly Weather History & Observations

Time (EDT) Temp. Windchill Dew Point Humidity Pressure Visibility Wind Dir Wind Speed Gust Speed Precip Events Conditions
12:35 AM 41.0 °F 34.3 °F 41.0 °F 100% 30.14 in 10.0 mi NNE 11.5 mph 17.3 mph N/A   Light Drizzle
1:15 AM 41.0 °F 35.8 °F 41.0 °F 100% 30.14 in 10.0 mi North 8.1 mph - N/A   Overcast
1:35 AM 42.8 °F 37.0 °F 41.0 °F 93% 30.12 in 10.0 mi North 10.4 mph - N/A   Overcast
1:55 AM 42.8 °F 38.0 °F 41.0 °F 93% 30.12 in 10.0 mi North 8.1 mph - N/A   Overcast
2:15 AM 42.8 °F 38.0 °F 39.2 °F 87% 30.14 in 10.0 mi North 8.1 mph - N/A   Overcast
2:35 AM 42.8 °F 37.0 °F 39.2 °F 87% 30.13 in 10.0 mi North 10.4 mph - N/A   Overcast
2:55 AM 42.8 °F 37.0 °F 39.2 °F 87% 30.12 in 10.0 mi North 10.4 mph - N/A   Overcast
3:15 AM 41.0 °F 34.3 °F 39.2 °F 93% 30.12 in 10.0 mi North 11.5 mph - N/A   Overcast
3:35 AM 41.0 °F 34.7 °F 37.4 °F 87% 30.12 in 10.0 mi North 10.4 mph - N/A   Overcast
3:55 AM 41.0 °F 34.3 °F 37.4 °F 87% 30.10 in 10.0 mi North 11.5 mph 19.6 mph N/A   Overcast
4:35 AM 41.0 °F 34.7 °F 37.4 °F 87% 30.10 in 10.0 mi North 10.4 mph - N/A   Overcast
4:55 AM 41.0 °F 33.9 °F 37.4 °F 87% 30.11 in 10.0 mi North 12.7 mph - N/A   Overcast
5:15 AM 41.0 °F 33.9 °F 37.4 °F 87% 30.11 in 10.0 mi North 12.7 mph 18.4 mph N/A   Overcast
5:35 AM 41.0 °F 33.9 °F 37.4 °F 87% 30.10 in 10.0 mi North 12.7 mph - N/A   Overcast
5:55 AM 41.0 °F 33.9 °F 37.4 °F 87% 30.11 in 10.0 mi North 12.7 mph 18.4 mph N/A   Overcast
6:15 AM 41.0 °F 33.1 °F 35.6 °F 81% 30.11 in 10.0 mi North 15.0 mph 18.4 mph N/A   Overcast
6:35 AM 41.0 °F 33.1 °F 35.6 °F 81% 30.12 in 10.0 mi North 15.0 mph 19.6 mph N/A   Overcast
6:55 AM 41.0 °F 33.9 °F 35.6 °F 81% 30.12 in 10.0 mi North 12.7 mph 18.4 mph N/A   Overcast
7:15 AM 39.2 °F 32.0 °F 35.6 °F 87% 30.13 in 10.0 mi North 11.5 mph - N/A   Overcast
7:55 AM 37.4 °F 29.3 °F 35.6 °F 93% 30.14 in 10.0 mi North 12.7 mph 19.6 mph N/A   Overcast
8:15 AM 37.4 °F 29.8 °F 35.6 °F 93% 30.15 in 10.0 mi North 11.5 mph 18.4 mph N/A   Overcast
8:35 AM 37.4 °F 29.3 °F 35.6 °F 93% 30.16 in 10.0 mi North 12.7 mph 19.6 mph N/A   Overcast
8:55 AM 37.4 °F 29.8 °F 35.6 °F 93% 30.16 in 10.0 mi North 11.5 mph - N/A   Overcast
9:15 AM 37.4 °F 29.8 °F 35.6 °F 93% 30.16 in 10.0 mi North 11.5 mph 19.6 mph N/A   Overcast
9:35 AM 39.2 °F 31.2 °F 35.6 °F 87% 30.17 in 10.0 mi North 13.8 mph 20.7 mph N/A   Overcast
10:15 AM 41.0 °F 33.5 °F 35.6 °F 81% 30.16 in 10.0 mi NNE 13.8 mph 20.7 mph N/A   Overcast
10:35 AM 42.8 °F 35.1 °F 35.6 °F 76% 30.17 in 10.0 mi North 16.1 mph 20.7 mph N/A   Overcast
10:55 AM 44.6 °F 38.1 °F 35.6 °F 71% 30.17 in 10.0 mi North 13.8 mph 21.9 mph N/A   Mostly Cloudy
11:15 AM 44.6 °F 37.4 °F 35.6 °F 71% 30.16 in 10.0 mi NNE 16.1 mph 21.9 mph N/A   Scattered Clouds
11:35 AM 44.6 °F 38.1 °F 35.6 °F 71% 30.16 in 10.0 mi NNE 13.8 mph 20.7 mph N/A   Clear
11:55 AM 46.4 °F 40.7 °F 37.4 °F 71% 30.15 in 10.0 mi NNE 12.7 mph 23.0 mph N/A   Scattered Clouds
12:15 PM 46.4 °F 39.8 °F 37.4 °F 71% 30.16 in 10.0 mi NNE 16.1 mph 21.9 mph N/A   Overcast
12:35 PM 48.2 °F - 37.4 °F 66% 30.15 in 10.0 mi North 15.0 mph 21.9 mph N/A   Overcast
12:55 PM 50.0 °F - 37.4 °F 62% 30.15 in 10.0 mi North 11.5 mph 21.9 mph N/A   Overcast
1:15 PM 48.2 °F - 37.4 °F 66% 30.14 in 10.0 mi NNE 12.7 mph 20.7 mph N/A   Overcast
1:35 PM 50.0 °F - 37.4 °F 62% 30.12 in 10.0 mi NNE 12.7 mph 19.6 mph N/A   Mostly Cloudy
1:55 PM 51.8 °F - 37.4 °F 58% 30.11 in 10.0 mi North 15.0 mph 21.9 mph N/A   Scattered Clouds
2:15 PM 50.0 °F - 37.4 °F 62% 30.11 in 10.0 mi North 13.8 mph 19.6 mph N/A   Mostly Cloudy
2:35 PM 51.8 °F - 37.4 °F 58% 30.10 in 10.0 mi North 12.7 mph 17.3 mph N/A   Mostly Cloudy
2:55 PM 50.0 °F - 35.6 °F 58% 30.10 in 10.0 mi NNE 12.7 mph 21.9 mph N/A   Mostly Cloudy
3:15 PM 50.0 °F - 35.6 °F 58% 30.09 in 10.0 mi NNE 10.4 mph 21.9 mph N/A   Mostly Cloudy
3:35 PM 53.6 °F - 35.6 °F 51% 30.09 in 10.0 mi North 15.0 mph 21.9 mph N/A   Mostly Cloudy
3:55 PM 51.8 °F - 35.6 °F 54% 30.09 in 10.0 mi NNE 12.7 mph 21.9 mph N/A   Mostly Cloudy
4:15 PM 53.6 °F - 35.6 °F 51% 30.09 in 10.0 mi NNE 12.7 mph 18.4 mph N/A   Mostly Cloudy
4:35 PM 51.8 °F - 33.8 °F 50% 30.10 in 10.0 mi NNE 10.4 mph 17.3 mph N/A   Mostly Cloudy
4:55 PM 51.8 °F - 33.8 °F 50% 30.10 in 10.0 mi NNE 15.0 mph 21.9 mph N/A   Mostly Cloudy
5:15 PM 51.8 °F - 33.8 °F 50% 30.10 in 10.0 mi NNE 13.8 mph 19.6 mph N/A   Scattered Clouds
5:35 PM 50.0 °F - 33.8 °F 54% 30.10 in 10.0 mi NE 11.5 mph - N/A   Mostly Cloudy
5:55 PM 50.0 °F - 33.8 °F 54% 30.10 in 10.0 mi NNE 12.7 mph 17.3 mph N/A   Overcast
6:15 PM 50.0 °F - 33.8 °F 54% 30.10 in 10.0 mi NNE 9.2 mph - N/A   Mostly Cloudy
6:35 PM 48.2 °F - 33.8 °F 58% 30.11 in 10.0 mi NNE 5.8 mph - N/A   Mostly Cloudy
6:55 PM 46.4 °F 42.4 °F 33.8 °F 62% 30.11 in 10.0 mi North 8.1 mph - N/A   Mostly Cloudy
7:15 PM 46.4 °F 43.5 °F 33.8 °F 62% 30.12 in 10.0 mi North 5.8 mph - N/A   Overcast
7:35 PM 44.6 °F 42.2 °F 35.6 °F 71% 30.14 in 10.0 mi North 4.6 mph - N/A   Overcast
7:55 PM 44.6 °F 41.4 °F 35.6 °F 71% 30.14 in 10.0 mi North 5.8 mph - N/A   Mostly Cloudy
8:15 PM 44.6 °F 41.4 °F 35.6 °F 71% 30.14 in 10.0 mi North 5.8 mph - N/A   Overcast
8:35 PM 44.6 °F 40.7 °F 35.6 °F 71% 30.14 in 10.0 mi North 6.9 mph - N/A   Overcast
8:55 PM 44.6 °F 40.7 °F 35.6 °F 71% 30.14 in 10.0 mi North 6.9 mph - N/A   Overcast
9:15 PM 44.6 °F 40.2 °F 33.8 °F 66% 30.14 in 10.0 mi North 8.1 mph - N/A   Overcast
9:35 PM 42.8 °F 38.0 °F 33.8 °F 70% 30.14 in 10.0 mi North 8.1 mph - N/A   Overcast
9:55 PM 42.8 °F 38.6 °F 33.8 °F 70% 30.14 in 10.0 mi North 6.9 mph - N/A   Mostly Cloudy
10:15 PM 42.8 °F 37.5 °F 33.8 °F 70% 30.12 in 10.0 mi North 9.2 mph - N/A   Scattered Clouds
10:35 PM 41.0 °F 37.1 °F 33.8 °F 76% 30.14 in 10.0 mi North 5.8 mph - N/A   Clear
10:55 PM 41.0 °F 36.4 °F 33.8 °F 76% 30.14 in 10.0 mi North 6.9 mph - N/A   Scattered Clouds
11:15 PM 41.0 °F 37.1 °F 33.8 °F 76% 30.14 in 10.0 mi North 5.8 mph - N/A   Scattered Clouds
11:35 PM 39.2 °F 35.0 °F 33.8 °F 81% 30.14 in 10.0 mi North 5.8 mph - N/A   Clear
11:55 PM 37.4 °F 32.1 °F 33.8 °F 87% 30.14 in 10.0 mi NNE 6.9 mph - N/A   Clear